Olbia, Italy

3:58 AM CEST on March 30, 2017 (GMT +0200)
Costa Smeralda

Weather History for LIEO - October, 2011

Change the Weather History Date:

Saturday, October 8, 2011

  Actual Average Record
Temperature  
Mean Temperature 63 °F -  
Max Temperature 73 °F 69 °F 86 °F (2001)
Min Temperature 53 °F 52 °F 44 °F (1999)
Degree Days  
Heating Degree Days 2    
Growing Degree Days 13 (Base 50)    
Moisture  
Dew Point 44 °F    
Average Humidity 50    
Maximum Humidity 77    
Minimum Humidity 18    
Precipitation  
Precipitation 0.00 in 0.08 in - ()
Sea Level Pressure  
Sea Level Pressure 29.89 in    
Wind  
Wind Speed 8 mph ()    
Max Wind Speed 18 mph    
Max Gust Speed -    
Visibility 7.6 miles    
Events      
Averages and records for this station are not official NWS values.
T = Trace of Precipitation, MM = Missing Value Source: Averaged Metar Reports

Daily Weather History Graph

Daily Weather History Graph

Search for Another Location

Airport or City:

Trip Planner

Search our weather history database for the weather conditions in past years. The results will help you decide how hot, cold, wet, or windy it might be!

Date:

Astronomy

Oct. 08, 2011 Rise Set
Actual Time 7:25 AM CEST 6:53 PM CEST
Civil Twilight 6:57 AM CEST 7:20 PM CEST
Nautical Twilight 6:25 AM CEST 7:52 PM CEST
Astronomical Twilight 5:54 AM CEST 8:24 PM CEST
Moon 4:57 PM CEST (10/8) 3:55 AM CEST (10/8)
Length of Visible Light 12h 22m
Length of Day
11h 28m
Waxing Gibbous, 88% of the Moon is Illuminated
Oct 8
Waxing Gibbous
Oct 12
Full
Oct 20
Last Quarter
Oct 26
New
Nov 2
First Quarter

Hourly Weather History & Observations

Time (CEST) Temp. Dew Point Humidity Pressure Visibility Wind Dir Wind Speed Gust Speed Precip Events Conditions
12:20 AM 64.4 °F 46.4 °F 52% 29.86 in - SW 11.5 mph - N/A   Clear
12:50 AM 64.4 °F 46.4 °F 52% 29.86 in - SW 12.7 mph - N/A   Clear
1:20 AM 62.6 °F 46.4 °F 55% 29.86 in - SW 13.8 mph - N/A   Clear
1:50 AM 62.6 °F 46.4 °F 55% 29.86 in - SW 8.1 mph - N/A   Clear
2:00 AM 63 °F 46 °F 42% 29.86 in 10 mi SW 15.0 mph - -   Clear
2:20 AM 62.6 °F 46.4 °F 55% 29.86 in - SW 11.5 mph - N/A   Clear
2:50 AM 60.8 °F 46.4 °F 59% 29.86 in - SW 9.2 mph - N/A   Clear
3:20 AM 60.8 °F 46.4 °F 59% 29.86 in - SW 11.5 mph - N/A   Clear
3:50 AM 62.6 °F 46.4 °F 55% 29.89 in - West 6.9 mph - N/A   Clear
4:20 AM 60.8 °F 48.2 °F 63% 29.86 in - South 6.9 mph - N/A   Clear
4:50 AM 59.0 °F 48.2 °F 67% 29.89 in - WSW 3.5 mph - N/A   Clear
5:00 AM 59 °F 47 °F 55% 29.89 in 10 mi SW 3.5 mph - -   Clear
5:20 AM 57.2 °F 46.4 °F 67% 29.89 in - SW 4.6 mph - N/A   Clear
5:50 AM 57.2 °F 46.4 °F 67% 29.89 in - SW 4.6 mph - N/A   Clear
6:20 AM 57.2 °F 46.4 °F 67% 29.89 in - SSW 5.8 mph - N/A   Clear
6:50 AM 55.4 °F 46.4 °F 72% 29.89 in 6.2 mi South 3.5 mph - N/A   Partly Cloudy
7:20 AM 53.6 °F 44.6 °F 72% 29.92 in 6.2 mi SSW 3.5 mph - N/A   Partly Cloudy
7:50 AM 53.6 °F 46.4 °F 77% 29.92 in 6.2 mi SSW 4.6 mph - N/A   Partly Cloudy
8:00 AM 54 °F 45 °F 64% 29.92 in 12 mi South 2.3 mph - -   Scattered Clouds
8:20 AM 55.4 °F 46.4 °F 72% 29.92 in 6.2 mi Variable 2.3 mph - N/A   Partly Cloudy
8:50 AM 59.0 °F 46.4 °F 63% 29.92 in 6.2 mi South 4.6 mph - N/A   Partly Cloudy
9:20 AM 64.4 °F 46.4 °F 52% 29.95 in 6.2 mi South 3.5 mph - N/A   Partly Cloudy
9:50 AM 68.0 °F 44.6 °F 43% 29.95 in 6.2 mi SW 3.5 mph - N/A   Partly Cloudy
10:20 AM 68.0 °F 44.6 °F 43% 29.95 in 6.2 mi NNW 3.5 mph - N/A   Partly Cloudy
10:50 AM 71.6 °F 41.0 °F 33% 29.95 in 6.2 mi NNW 6.9 mph - N/A   Partly Cloudy
11:00 AM 71 °F 41 °F 23% 29.92 in 12 mi North 9.2 mph - -   Scattered Clouds
11:20 AM 69.8 °F 39.2 °F 33% 29.92 in 6.2 mi NNW 6.9 mph - N/A   Partly Cloudy
11:50 AM 71.6 °F 39.2 °F 31% 29.92 in 6.2 mi North 8.1 mph - N/A   Partly Cloudy
12:20 PM 73.4 °F 35.6 °F 25% 29.92 in 6.2 mi North 5.8 mph - N/A   Partly Cloudy
12:50 PM 71.6 °F 42.8 °F 35% 29.92 in 6.2 mi ENE 8.1 mph - N/A   Partly Cloudy
1:20 PM 71.6 °F 42.8 °F 35% 29.89 in 6.2 mi ENE 9.2 mph - N/A   Scattered Clouds
1:50 PM 71.6 °F 39.2 °F 31% 29.89 in 6.2 mi NE 11.5 mph - N/A   Scattered Clouds
2:00 PM 71 °F 36 °F 18% 29.89 in 12 mi NE 11.5 mph - -   Partly Cloudy
2:20 PM 71.6 °F 39.2 °F 31% 29.89 in 6.2 mi ENE 10.4 mph - N/A   Scattered Clouds
2:50 PM 69.8 °F 41.0 °F 35% 29.86 in 6.2 mi ENE 10.4 mph - N/A   Scattered Clouds
3:20 PM 69.8 °F 41.0 °F 35% 29.86 in 6.2 mi East 9.2 mph - N/A   Scattered Clouds
3:50 PM 69.8 °F 41.0 °F 35% 29.86 in 6.2 mi ESE 4.6 mph - N/A   Mostly Cloudy
4:20 PM 68.0 °F 42.8 °F 40% 29.86 in 6.2 mi SW 18.4 mph - N/A   Scattered Clouds
4:50 PM 69.8 °F 41.0 °F 35% 29.86 in 6.2 mi SW 17.3 mph - N/A   Partly Cloudy
5:00 PM 70 °F 40 °F 23% 29.83 in 16 mi SW 18.4 mph - -   Scattered Clouds
5:20 PM 69.8 °F 44.6 °F 40% 29.83 in 6.2 mi SW 16.1 mph - N/A   Partly Cloudy
5:50 PM 68.0 °F 44.6 °F 43% 29.86 in 6.2 mi SW 15.0 mph - N/A   Partly Cloudy
6:20 PM 66.2 °F 46.4 °F 49% 29.86 in - SW 11.5 mph - N/A   Clear
6:50 PM 64.4 °F 46.4 °F 52% 29.86 in - SW 15.0 mph - N/A   Clear
7:20 PM 62.6 °F 46.4 °F 55% 29.86 in - WSW 13.8 mph - N/A   Clear
7:50 PM 62.6 °F 44.6 °F 52% 29.86 in - WSW 9.2 mph - N/A   Clear
8:00 PM 59 °F 45 °F 49% 29.86 in 16 mi WSW 8.1 mph - -   Partly Cloudy
8:20 PM 60.8 °F 46.4 °F 59% 29.86 in - SW 9.2 mph - N/A   Clear
8:50 PM 60.8 °F 46.4 °F 59% 29.89 in 6.2 mi South 6.9 mph - N/A   Partly Cloudy
9:20 PM 59.0 °F 46.4 °F 63% 29.89 in 6.2 mi SW 6.9 mph - N/A   Partly Cloudy
9:50 PM 59.0 °F 48.2 °F 67% 29.89 in 6.2 mi WSW 6.9 mph - N/A   Partly Cloudy
10:20 PM 60.8 °F 46.4 °F 59% 29.89 in 6.2 mi SSW 9.2 mph - N/A   Partly Cloudy
10:50 PM 59.0 °F 46.4 °F 63% 29.89 in 6.2 mi SSW 8.1 mph - N/A   Partly Cloudy
11:00 PM 59 °F 46 °F 53% 29.89 in 16 mi SSW 8.1 mph - -   Scattered Clouds
11:20 PM 59.0 °F 46.4 °F 63% 29.89 in 6.2 mi SW 5.8 mph - N/A   Partly Cloudy
11:50 PM 57.2 °F 46.4 °F 67% 29.89 in 6.2 mi SSW 5.8 mph - N/A   Partly Cloudy